STARLINK-37801, 69435

Orbit data source: Space-Track

STARLINK-37801, 69435 is a payload satellite owned by SpaceX/Seattle (US) in SSO that was launched on Sun, 07 Jun 2026 UTC via an FALCON 9 launch vehicle from the Air Force Western Test Range (AFWTR). Payload-class satellites include a variety of spacecraft equipped with specific instruments for various scientific and technological missions. These include communications satellites like Starlink; space stations such as the ISS; scientific satellites like the Hubble; Earth observation satellites from companies like Planet Labs, Umbra, and HawkEye 360; GPS; miniature CubeSats for education and research; and military/defense satellites.

Not visible in the next 10 days
Identifier
69435, 2026-126R
Orbit
SSO
Country
Flag of USUS
Related business
Manufacturer
SpaceX/Seattle
Mission
Operational spacecraft
Bus & Motor
STARLINK V2MO, Unknown motor
Mass
575 kg wet, ~530 kg dry
Launch date (UTC)
2026-06-07 (2 weeks ago)
Launch vehicle
FALCON 9
Launch site
Air Force Western Test Range (AFWTR)
Object type
Payload
Rocket body
Debris
Shape & HBR
Unknown
Radar Cross Section
RCS unknown

Expand to show TLE details & history
Last TLE update: 1 day ago

TLE from 1 day ago
0 STARLINK-37801
1 69435U 26126R   26170.56701878 -.00026943  00000-0 -16229-3 0  9991
2 69435  97.2825  30.7119 0002973 185.9362 174.1870 15.77587389  3177
Epoch: 2026-06-19T13:36Z
TLE epoch observation values (Epoch: 2026-06-19T13:36:30.422Z)
Latitude
-0.00001°
Longitude
-81.209°
Altitude
342.437 km
Speed
7.702 km/s
True Right ascension
02h 02m 50s
True Declination
0° 00' 00"
Sunlit
Object was in daylight at epoch
Visualization orbit readout
Latitude
Unknown
Longitude
Unknown
Altitude
Unknown
Speed
Unknown
Apparent Right ascension
Unknown
Apparent Declination
Unknown
Sunlit
N/A
Visualization observer readout
Local Sidereal Time
07:12:18
Azimuth
Unknown
Elevation
Unknown
Doppler factor
Unknown
Orbital elements
Apogee altitude
336.158 km
Perigee altitude
332.167 km
Semi-major axis
6,712.3 km
Eccentricity
0.0003
Inclination
97.2825°
RAAN
30.7119°
Arg. of periapsis
185.9362°
True anomaly
174.19045°
Mean anomaly
174.187°
Eccentric anomaly
174.18872°
Mean motion
3.94672 °/min
Orbital period
91.22 mins
BSTAR
-0.00016229
Loading maneuver chart data...
Computing Atmospheric mass density...
Loading historical data...
Loading historical data...
Loading historical data...
Loading historical data...
Loading historical data...
Loading historical data...
Loading historical data...

Documentation

Showing up to 5 results
|